User: anonymous   Login
Location: Unspecified
(0.0000°N, 0.0000°E)
Time: 03:16:12
(UTC+00:00)
Language:

STARLINK-1843 - Orbit

View from above orbital plane
View from above orbital plane
View from above satellite
View from above satellite

Ground track
Ground track

The orbit data is extracted from the following two-line orbital elements,

1 47133U 20088M   21055.91668981 -.01061331  00000-0 -60802-1 0  9991
2 47133  53.0531 266.3864 0001433  79.0977 119.9284 15.14874338  1810
Epoch (UTC): 24 February 2021 22:00:02
Eccentricity: 0.0001433
inclination: 53.0531°
perigee height: 520 km
apogee height: 522 km
right ascension of ascending node: 266.3864°
argument of perigee: 79.0977°
revolutions per day: 15.14874338
mean anomaly at epoch: 119.9284°
orbit number at epoch: 181

The dashed part of the orbit path shows where the satellite is in the earth's shadow,  

DLR